sat.trackr.live / text

‹ back to catalog

STARLINK-3536

NORAD 51888 · 2022-022AN

PAYLOAD ACTIVE UNKNOWN

§ Identity

Operator
Country
US
Launch date
2022-03-03
Launch site
AFETR
Launch vehicle
Mass (kg)
RCS (m²)

Purposes: comms

External: N2YO · Heavens-Above · Gunter

§ Orbital elements

Epoch: 2026-09-20T04:32:47.926176Z

Period
93.90 min
Inclination
53.1589°
Eccentricity
0.0001289
Mean motion
15.33545774 rev/d
Perigee alt
464.4 km
Apogee alt
466.1 km
Semi-major
6,843.4 km
B*
1.7531e-5
RAAN
191.3841°
Arg perigee
93.9798°
Mean anomaly
266.1352°
Rev number
25,281

§ Raw data

STARLINK-35361 51888U 22022AN  26263.18944359  .00000204  00000+0  17531-4 0  99962 51888  53.1589 191.3841 0001289  93.9798 266.1352 15.33545774252812

JSON: /api/v1/satellites/51888 · /tle

For live sub-satellite position, see the globe view (requires WebGL).

§ Visibility from observer

Set your observer location to see the next 7 days of passes ≥ 10°. The values pass through the URL so the page stays shareable.

No JS? Fill the form by hand. The geolocation button needs JavaScript.